[[{"header":{"parameterUnit":"m.s-1","parameterCategory":1,"la1":30.2991,"la2":30.254,"lo1":-89.0895,"lo2":-89.0444,"dy":0.0017,"dx":0.0017,"nx":28,"ny":28,"refTime":"2023-08-29T03:00:00:Z","depth":0,"parameterNumber":2,"parameterNumberName":"U-component_of_WINDS"},"data":[0,0,0,0,0,0,0,0,0,0,0,0,0,0,0,0,0,0,0,0,0,0,0,0,0,0,0,0,0,0,0,0,0,0,0,0,0,0,0,0,0,0,0,0,0,0,0,0,0,0,0,0,0,0,0,0,0,0,-5.058,-5.058,0,-5.0557,-5.0557,-5.0557,-5.0425,-5.0422,-5.0418,-5.0415,-5.0395,-5.0398,-5.04,0,0,0,0,0,0,0,0,0,0,0,0,0,-5.0515,-5.0517,-5.058,-5.058,-5.058,-5.0557,-5.0557,-5.0557,-5.0425,-5.0422,-5.0418,-5.0414,-5.0395,-5.0398,-5.04,0,0,0,0,0,0,0,0,0,0,0,0,0,-5.0523,-5.0518,-5.058,-5.0511,-5.0505,-5.0557,-5.0557,-5.0557,-5.0426,-5.0421,-5.0417,-5.0412,-5.0394,-5.0397,-5.0401,-5.0519,0,0,-5.0412,-5.0414,0,0,0,0,0,0,0,0,-5.0523,-5.0526,-5.0522,-5.0516,-5.0509,-5.0489,-5.0526,-5.0544,-5.0427,-5.0456,-5.0415,-5.041,-5.0431,-5.0431,-5.0437,-5.0518,-5.0517,-5.0412,-5.0414,-5.0416,-5.0417,0,0,0,0,0,0,0,-5.0522,-5.0526,-5.0571,-5.0522,-5.0514,-5.0483,-5.0479,-5.0529,-5.0471,-5.0453,-5.0444,-5.0443,-5.0426,-5.0434,-5.0436,-5.0517,-5.0412,-5.0415,-5.0418,-5.0419,-5.0694,-5.0699,0,0,0,0,0,0,-5.0531,-5.0526,-5.0572,-5.057,-5.0504,-5.0488,-5.0484,-5.05,-5.047,-5.046,-5.0447,-5.0437,-5.043,-5.0432,-5.0435,-5.057,-5.0416,-5.0419,-5.0422,-5.0689,-5.0695,-5.0701,0,0,0,0,0,0,-5.053,-5.0536,-5.0573,-5.0546,-5.0548,-5.0494,-5.0514,-5.0502,-5.051,-5.0465,-5.0454,-5.0465,-5.0426,-5.0429,-5.0499,-5.0567,-5.0421,-5.0424,-5.0683,-5.0691,-5.0698,-5.0842,0,0,0,0,0,0,-5.0529,-5.0537,-5.0579,-5.0548,-5.055,-5.0636,-5.0519,-5.0505,-5.0516,-5.0502,-5.0479,-5.047,-5.0423,-5.0494,-5.0502,-5.057,-5.0427,-5.0677,-5.0687,-5.0696,-5.0831,-5.0854,-5.0873,0,0,0,0,0,-5.0527,-5.0622,-5.0582,-5.0588,-5.0602,-5.064,-5.0642,-5.0584,-5.0522,-5.0565,-5.0537,-5.0471,-5.056,-5.0502,-5.051,-5.058,-5.0672,-5.0684,-5.0695,-5.0821,-5.0849,-5.0873,0,0,0,0,0,0,-5.0663,-5.0616,-5.0572,-5.0659,-5.0655,-5.0618,-5.067,-5.0615,-5.0629,-5.0616,-5.0546,-5.0541,-5.0621,-5.0608,-5.0545,-5.0693,-5.0605,-5.0618,-5.0698,-5.0724,-5.0745,-5.0745,-5.043,0,0,0,0,0,-5.0703,-5.0737,-5.0695,-5.0776,-5.0776,-5.0724,-5.0739,-5.0695,-5.0688,-5.0686,-5.0662,-5.0659,-5.0686,-5.0705,-5.0727,-5.083,-5.0823,-5.0882,-5.0904,-5.0921,-5.0933,-5.0987,-5.1012,-5.0739,-5.0739,-5.0738,0,0,-5.0786,-5.0765,-5.079,-5.0802,-5.0794,-5.0831,-5.0723,-5.0767,-5.0795,-5.0693,-5.0755,-5.0739,-5.0731,-5.0818,-5.0855,-5.0809,-5.1008,-5.0936,-5.095,-5.0952,-5.1001,-5.1027,-5.105,-5.0746,-5.0745,-5.0744,0,0,-5.0956,-5.0944,-5.1009,-5.1004,-5.0992,-5.0958,-5.0974,-5.0947,-5.0931,-5.0994,-5.0918,-5.0952,-5.0999,-5.0997,-5.1002,-5.1175,-5.1115,-5.1185,-5.1295,-5.1348,-5.1369,-5.1388,-5.1449,-5.1472,-5.1198,-5.1198,-5.1199,0,-5.106,-5.1112,-5.105,-5.1099,-5.1107,-5.1018,-5.1084,-5.1082,-5.108,-5.1088,-5.1037,-5.1096,-5.1085,-5.117,-5.1212,-5.122,-5.1237,-5.1185,-5.1371,-5.1389,-5.1406,-5.1463,-5.1486,-5.1207,-5.1206,-5.1205,-5.1204,0,-5.1241,-5.1279,-5.1334,-5.1332,-5.1347,-5.1406,-5.1354,-5.1377,-5.1334,-5.1306,-5.1372,-5.1355,-5.1373,-5.1391,-5.1349,-5.1471,-5.1443,-5.1383,-5.1292,-5.1441,-5.1494,-5.1515,-5.1219,-5.1216,-5.1213,-5.1211,0,0,-5.1491,-5.1457,-5.1478,-5.1477,-5.146,-5.1488,-5.1544,-5.1561,-5.1581,-5.1585,-5.1629,-5.1674,-5.1619,-5.1625,-5.1583,-5.1631,-5.1768,-5.1565,-5.1563,-5.1601,-5.1901,-5.1943,-5.1969,-5.173,-5.1734,-5.1737,-5.1901,0,-5.1652,-5.1742,-5.169,-5.1788,-5.1823,-5.174,-5.1789,-5.1785,-5.1761,-5.1789,-5.1763,-5.1795,-5.1721,-5.1724,-5.1768,-5.1742,-5.1827,-5.173,-5.1771,-5.1773,-5.1772,-5.1997,-5.2042,-5.2196,-5.1921,-5.1924,-5.1927,0,-5.185,-5.1861,-5.1963,-5.194,-5.1953,-5.1997,-5.2009,-5.2036,-5.2031,-5.2011,-5.202,-5.1967,-5.2021,-5.1935,-5.2009,-5.1945,-5.196,-5.195,-5.1955,-5.1954,-5.1856,-5.2,-5.2244,-5.2267,-5.1959,-5.1956,-5.1954,0,-5.202,-5.2061,-5.2126,-5.2129,-5.2104,-5.2138,-5.2129,-5.2119,-5.2133,-5.2145,-5.2154,-5.2173,-5.2183,-5.2199,-5.2154,-5.2095,-5.2235,-5.2144,-5.222,-5.2221,-5.2249,-5.2248,-5.2497,-5.2265,-5.2264,-5.2264,-5.2263,0,-5.2203,-5.2268,-5.2202,-5.2243,-5.2314,-5.2256,-5.2328,-5.2312,-5.2304,-5.2341,-5.2273,-5.2309,-5.2249,-5.228,-5.2246,-5.2312,-5.2318,-5.2304,-5.2293,-5.2308,-5.2309,-5.2314,-5.2301,-5.227,-5.2269,-5.2267,-5.2266,0,-5.2403,-5.2362,-5.2428,-5.2401,-5.2396,-5.2449,-5.2426,-5.2463,-5.2437,-5.2485,-5.2493,-5.2451,-5.2485,-5.2442,-5.2472,-5.2449,-5.254,-5.2515,-5.2541,-5.2532,-5.2609,-5.2602,-5.2867,-5.2899,-5.2649,-5.2652,-5.2654,0,-5.252,-5.2568,-5.2547,-5.2566,-5.2562,-5.2594,-5.2608,-5.2555,-5.2572,-5.2572,-5.261,-5.2637,-5.2655,-5.2713,-5.2687,-5.271,-5.2683,-5.2775,-5.2686,-5.2699,-5.2682,-5.2678,-5.2682,-5.2792,-5.2795,-5.2797,-5.2799,0,-5.2733,-5.2711,-5.2733,-5.275,-5.2769,-5.2779,-5.2785,-5.2805,-5.2749,-5.2773,-5.2806,-5.2821,-5.2851,-5.2879,-5.2896,-5.2889,-5.2835,-5.2829,-5.2846,-5.286,-5.2872,-5.2865,-5.2587,-5.2821,-5.2819,-5.2818,-5.2816,-5.2815,-5.2894,-5.2933,-5.2924,-5.2952,-5.2951,-5.2958,-5.2991,-5.297,-5.2996,-5.3015,-5.2983,-5.3025,-5.3021,-5.3037,-5.3037,-5.307,-5.303,-5.3057,-5.3063,-5.307,-5.3081,-5.2871,-5.3073,-5.3072,-5.3072,-5.3071,-5.3071,0,-5.3101,-5.3092,-5.3119,-5.3128,-5.3151,-5.31,-5.3104,-5.3126,-5.3163,-5.3164,-5.3184,-5.3223,-5.3251,-5.3229,-5.3252,-5.3283,-5.3259,-5.3291,-5.3286,-5.3285,-5.3116,-5.3096,-5.3309,-5.3309,-5.3309,-5.3309,-5.3309,-5.3309,-5.3211,-5.3274,-5.3252,-5.3315,-5.3306,-5.3345,-5.3352,-5.3359,-5.3359,-5.3405,-5.3428,-5.3413,-5.3405,-5.3428,-5.3452,-5.3445,-5.3456,-5.3496,-5.348,-5.3321,-5.3297,-5.3275,-5.3256,-5.3499,-5.35,-5.3646,-5.3648,-5.3649]},{"header":{"parameterUnit":"m.s-1","parameterCategory":1,"la1":30.2991,"la2":30.254,"lo1":-89.0895,"lo2":-89.0444,"dy":0.0017,"dx":0.0017,"nx":28,"ny":28,"refTime":"2023-08-29T03:00:00:Z","depth":0,"parameterNumber":3,"parameterNumberName":"V-component_of_WINDS"},"data":[0,0,0,0,0,0,0,0,0,0,0,0,0,0,0,0,0,0,0,0,0,0,0,0,0,0,0,0,0,0,0,0,0,0,0,0,0,0,0,0,0,0,0,0,0,0,0,0,0,0,0,0,0,0,0,0,0,0,0.7894,0.7894,0,0.7886,0.7886,0.7886,0.7925,0.7926,0.7927,0.7928,0.7915,0.7914,0.7913,0,0,0,0,0,0,0,0,0,0,0,0,0,0.794,0.7939,0.7894,0.7894,0.7894,0.7886,0.7886,0.7886,0.7925,0.7926,0.7927,0.7929,0.7916,0.7914,0.7913,0,0,0,0,0,0,0,0,0,0,0,0,0,0.7925,0.7939,0.7894,0.7912,0.7914,0.7886,0.7886,0.7886,0.7924,0.7926,0.7928,0.7929,0.7917,0.7914,0.7912,0.7865,0,0,0.7906,0.7905,0,0,0,0,0,0,0,0,0.7926,0.7923,0.791,0.7911,0.7913,0.7908,0.7898,0.7878,0.7924,0.792,0.7928,0.793,0.7911,0.791,0.7904,0.7864,0.7864,0.7906,0.7904,0.7904,0.7903,0,0,0,0,0,0,0,0.7927,0.7924,0.7891,0.7909,0.7911,0.792,0.792,0.7894,0.7906,0.7921,0.7924,0.7922,0.7912,0.7906,0.7904,0.7863,0.7906,0.7904,0.7903,0.7902,0.7785,0.7783,0,0,0,0,0,0,0.7926,0.7924,0.7891,0.789,0.7924,0.7918,0.7918,0.7908,0.7907,0.7908,0.7921,0.7924,0.7909,0.7907,0.7904,0.7849,0.7904,0.7902,0.79,0.7787,0.7785,0.7783,0,0,0,0,0,0,0.7927,0.7923,0.7891,0.7908,0.7905,0.7915,0.7904,0.7907,0.7901,0.7907,0.7909,0.7912,0.791,0.7907,0.7875,0.7849,0.7901,0.7899,0.7789,0.7786,0.7784,0.7738,0,0,0,0,0,0,0.7928,0.7923,0.7905,0.7908,0.7904,0.7863,0.7902,0.7905,0.7897,0.7902,0.7899,0.7901,0.7911,0.7878,0.7873,0.7847,0.7897,0.7792,0.7788,0.7785,0.7741,0.7734,0.7727,0,0,0,0,0,0.7929,0.7891,0.7904,0.79,0.7882,0.7861,0.7859,0.7873,0.7895,0.7877,0.7882,0.7901,0.7853,0.7874,0.7869,0.7842,0.7793,0.7789,0.7785,0.7745,0.7735,0.7727,0,0,0,0,0,0,0.7883,0.7892,0.7906,0.7868,0.7864,0.7868,0.7846,0.7863,0.7851,0.7855,0.7873,0.7872,0.7837,0.7836,0.786,0.7797,0.7827,0.7821,0.7798,0.7789,0.7782,0.7782,0.7895,0,0,0,0,0,0.7869,0.7852,0.786,0.7826,0.7823,0.7835,0.7826,0.7838,0.7834,0.7832,0.7834,0.7828,0.7812,0.78,0.7786,0.7742,0.7742,0.7721,0.7714,0.7708,0.7703,0.768,0.7671,0.7769,0.7769,0.7769,0,0,0.7839,0.7841,0.7829,0.7816,0.7815,0.7796,0.7833,0.7811,0.7798,0.7828,0.7798,0.7799,0.7794,0.7756,0.774,0.7755,0.7676,0.7703,0.7698,0.7696,0.7675,0.7666,0.7657,0.7767,0.7767,0.7767,0,0,0.7774,0.7774,0.7746,0.7744,0.7742,0.775,0.7744,0.7746,0.7748,0.7719,0.7742,0.7726,0.7697,0.7693,0.7687,0.7623,0.764,0.7618,0.7579,0.7557,0.7549,0.7543,0.752,0.7511,0.7613,0.7613,0.7613,0,0.7736,0.771,0.7729,0.7706,0.77,0.7729,0.7701,0.7697,0.769,0.7684,0.7702,0.7668,0.7667,0.7629,0.7613,0.7608,0.76,0.7617,0.7549,0.7543,0.7537,0.7515,0.7506,0.761,0.761,0.7611,0.7611,0,0.7663,0.7645,0.7623,0.7617,0.7608,0.7582,0.7597,0.7585,0.7599,0.7605,0.7575,0.7575,0.7561,0.7554,0.7565,0.7517,0.7527,0.7547,0.7577,0.7524,0.7504,0.7496,0.7606,0.7607,0.7608,0.7608,0,0,0.7567,0.7574,0.7565,0.7564,0.7564,0.755,0.7526,0.7515,0.7505,0.7499,0.7479,0.7455,0.7474,0.7468,0.7479,0.746,0.741,0.7482,0.7483,0.7469,0.7357,0.7342,0.7332,0.7422,0.742,0.7419,0.7358,0,0.7504,0.7465,0.7482,0.744,0.7424,0.7452,0.7431,0.7429,0.7435,0.7421,0.7427,0.741,0.7436,0.7433,0.7415,0.742,0.7388,0.7424,0.7402,0.7401,0.7402,0.7322,0.7305,0.7247,0.735,0.7349,0.7348,0,0.7424,0.7418,0.7375,0.738,0.7374,0.7355,0.7346,0.7333,0.7331,0.7337,0.733,0.7347,0.7323,0.7355,0.7322,0.7347,0.7339,0.734,0.7338,0.7336,0.7371,0.7317,0.7229,0.722,0.7336,0.7337,0.7337,0,0.7359,0.7339,0.7311,0.7308,0.7314,0.73,0.7301,0.7301,0.7294,0.7286,0.7281,0.727,0.7264,0.7255,0.7268,0.729,0.7233,0.7266,0.7237,0.7236,0.7222,0.7223,0.7131,0.7218,0.7219,0.7219,0.7219,0,0.7286,0.7258,0.7282,0.7264,0.7235,0.7255,0.7224,0.7229,0.7229,0.7212,0.7236,0.722,0.7239,0.7224,0.7234,0.7206,0.7203,0.7206,0.7209,0.7204,0.7203,0.7198,0.7202,0.7216,0.7217,0.7217,0.7218,0,0.7207,0.7221,0.7193,0.7201,0.7203,0.718,0.7187,0.7171,0.7179,0.7158,0.7154,0.7167,0.7151,0.7164,0.7148,0.7155,0.7117,0.7126,0.7118,0.7121,0.7091,0.7093,0.6992,0.698,0.7075,0.7074,0.7073,0,0.7159,0.7139,0.7146,0.7137,0.7138,0.7123,0.7117,0.7136,0.7127,0.7125,0.7109,0.7096,0.7087,0.706,0.7067,0.7055,0.7064,0.7029,0.7062,0.7058,0.7063,0.7064,0.7062,0.7022,0.7021,0.702,0.7019,0,0.7073,0.7082,0.7071,0.7064,0.7056,0.705,0.7047,0.7038,0.7058,0.7047,0.7033,0.7026,0.7011,0.6997,0.6988,0.6989,0.7007,0.7009,0.7002,0.6996,0.6992,0.6994,0.71,0.7011,0.7012,0.7013,0.7013,0.7013,0.7008,0.6992,0.6995,0.6983,0.6983,0.6979,0.6965,0.6973,0.6961,0.6952,0.6964,0.6946,0.6945,0.6936,0.6934,0.692,0.6934,0.6923,0.692,0.6917,0.6913,0.6995,0.6918,0.6918,0.6918,0.6919,0.6919,0,0.6923,0.6927,0.6916,0.6911,0.6902,0.6922,0.692,0.691,0.6895,0.6894,0.6884,0.6868,0.6855,0.6862,0.6851,0.6839,0.6847,0.6835,0.6836,0.6836,0.6901,0.6908,0.6829,0.6829,0.6829,0.6829,0.6829,0.6829,0.6877,0.6852,0.6861,0.6835,0.6839,0.6823,0.682,0.6817,0.6816,0.6797,0.6788,0.6793,0.6795,0.6785,0.6774,0.6776,0.6771,0.6756,0.6761,0.6822,0.6831,0.6839,0.6846,0.6755,0.6755,0.6697,0.6697,0.6696]}]]